Regional Weather Roundup
Issued by NWS Sterling, VA

Home | Current Version | Previous Version | Graphics & Text | Print | Product List | Glossary On
Versions: 1 2 3 4 5 6 7 8 9 10 11 12 13 14 15 16 17 18 19 20 21 22 23 24 25 26 27
000
ASUS41 KLWX 100411
RWRLWX

REGIONAL WEATHER ROUNDUP
NATIONAL WEATHER SERVICE BALTIMORE MD/WASHINGTON DC
1100 PM EST SAT DEC 09 2017

Note: "FAIR" indicates few or no clouds below 12,000 feet
with no significant weather and/or obstructions to visibility.
 TC=TEMPERATURE CELSIUS

 * =Non NWS site. Station does not report precipitation (e.g. rain,
    snow, etc.), thunder, or fog.

DCZ001-MDZ009-015-VAZ040>042-051-053>054-100500-
WASHINGTON METRO

CITY           SKY/WX    TMP DP  RH WIND       PRES   REMARKS
WASHINGTON NAT CLOUDY    32  29  88 SW8       29.87R WCI  25
DULLES         MOCLDY    26  26 100 S3        29.85R FOG
ANDREWS AFB    PTCLDY    30  28  91 SW6       29.84R
FT BELVOIR     MOCLDY    31  28  88 CALM      29.87R
QUANTICO       PTCLDY    31  30  96 W3        29.89R
COLLEGE PARK*  CLOUDY    31  27  87 CALM      29.85R
LEESBURG*      PTCLDY    28  28 100 SW3       29.86R FOG
MANASSAS*      CLOUDY    28  27  96 SW6       29.88R FOG
GAITHERSBURG*  CLEAR     24  22  91 W3        29.83R FOG

$$

MDZ006>007-011-014-100500-
BALTIMORE METRO

CITY           SKY/WX    TMP DP  RH WIND       PRES   REMARKS
BWI AIRPORT    MOCLDY    29  27  92 W8        29.84R WCI  21
MD SCIENCE CTR   N/A     31  27  85 MISG      29.83S
MARTIN STATE   CLOUDY    32  30  93 CALM      29.85R
ANNAPOLIS      CLOUDY    31  31 100 W3        29.85R
FORT MEADE*    CLOUDY    30  28  93 CALM      29.86S

$$

MDZ012-015-019>023-100500-
MARYLAND EASTERN SHORE

CITY           SKY/WX    TMP DP  RH WIND       PRES   REMARKS
OCEAN CITY     LGT SNOW  31  30  96 NW8       29.81F FOG     WCI  23
SALISBURY      CLOUDY    31  30  96 W7        29.83R
CAMBRIDGE*     CLOUDY    34  30  86 NW6       29.84R
EASTON*        CLOUDY    33  32  94 NW5       29.87R

$$

MDZ017>025-100500-
SOUTHERN MARYLAND

CITY           SKY/WX    TMP DP  RH WIND       PRES   REMARKS
PATUXENT RIVER CLOUDY    31  30  96 W9        29.86R WCI  23
ST INIGOES     CLOUDY    33  30  88 NW7       29.86S
LEONARDTOWN*   CLOUDY    32  30  93 NW5       29.88R

$$

MDZ003>005-100500-
NORTH CENTRAL MARYLAND

CITY           SKY/WX    TMP DP  RH WIND       PRES   REMARKS
FREDERICK*     MOCLDY    27  27 100 SE3       29.87R FOG
HAGERSTOWN APT PTCLDY    29  26  89 S5        29.82R FOG
WESTMINSTER*   FOG       25  25 100 CALM      29.79S VSB 1/2

$$

MDZ501>502-100500-
WESTERN MARYLAND

CITY           SKY/WX    TMP DP  RH WIND       PRES   REMARKS
OAKLAND*       PTCLDY    21  14  73 W9G20     29.70R WCI  11
CUMBERLAND*    MOCLDY    34  18  51 W13       29.87R WCI  25

$$

VAZ025>031-100500-
SHENANDOAH VALLEY

CITY           SKY/WX    TMP DP  RH WIND       PRES   REMARKS
WINCHESTER*    MOCLDY    28  28 100 W7        29.83R FOG
FRONT ROYAL*   CLOUDY    32  30  93 MISG      29.83R
LURAY*         CLOUDY    32  32 100 CALM      29.84R FOG
NEW MARKET*    CLOUDY    31  29  93 CALM      29.83R
STAUNTON*      CLOUDY    27  26  96 CALM      29.84S
WAYNESBORO*    CLOUDY    30  28  90 SW6       29.81R

$$

WVZ021-048>050-054>055-100500-
EASTERN WEST VIRGINIA PANHANDLE

CITY           SKY/WX    TMP DP  RH WIND       PRES   REMARKS
MARTINSBURG    PTCLDY    27  24  89 SW5       29.82R
PETERSBURG*    CLOUDY    29  25  84 CALM      29.84R

$$

VAZ036>039-050-100500-
CENTRAL FOOTHILLS

CITY           SKY/WX    TMP DP  RH WIND       PRES   REMARKS
CHARLOTTESVILL CLOUDY    33  32  96 CALM      29.85R FOG
CULPEPER*      CLOUDY    30  29  94 CALM      29.88R FOG
ORANGE*        CLOUDY    32  32 100 CALM      29.86R FOG
GORDONSVILLE*  CLOUDY    32  32  99 SW5       29.86R
WARRENTON*     CLOUDY    30  28  90 CALM      29.86R FOG

$$

VAZ055>057-100500-
NORTH AND CENTRAL PIEDMONT

CITY           SKY/WX    TMP DP  RH WIND       PRES   REMARKS
FREDERICKSBRG* CLOUDY    31  31 100 CALM      29.87S
STAFFORD*      CLOUDY    29  29 100 CALM      29.91R

$$

NCZ024-NYZ072-PAZ021-071-VAZ022-071-100500-
OTHER REGIONAL OBSERVATIONS

CITY           SKY/WX    TMP DP  RH WIND       PRES   REMARKS
NEW YORK CITY  CLOUDY    30  29  96 CALM      29.74F FOG
PHILADELPHIA   LGT SNOW  31  28  89 W6        29.79S FOG
PITTSBURGH     FLURRIES  30  24  78 W5        29.83R
ROANOKE        PTCLDY    34  19  54 W16G24    29.89R WCI  24
RICHMOND       CLOUDY    33  32  96 SW6       29.89R FOG
RALEIGH        CLOUDY    32  32 100 SW6       29.93R FOG

$$

ANZ530>537-100500-
MARINE OBSERVATIONS

STATION/POSITION TIME  TEMP    WIND        PRES
                       AIR SEA DIR/SP/G
                 (UTC) (F)     (DEG/KT/KT) (MB)
THOMAS PT LIGHT  0400   32 48  270/ 11/ 13   N/A
BALT KEY BRIDGE  0342   31     260/  7/  9 1010.5R
COVE POINT       0342   31     310/  7/ 12 1011.7R
LEWISETTA        0342   33 45  290/  7/  9 1011.5R
SOLOMONS ISLAND  0342   32 49  270/  8/ 13 1010.9R
PINEY POINT      0348          290/  9/ 13   N/A

$$





USA.gov is the U.S. government's official web portal to all federal, state and local government web resources and services.